Regional Weather Roundup
Issued by NWS Burlington, VT

Home | Current Version | Previous Version | Text Only | Print | Product List | Glossary On
Versions: 1 2 3 4 5 6 7 8 9 10 11 12 13 14 15 16 17 18 19 20 21 22 23 24 25 26 27 28 29 30 31 32 33 34 35 36 37 38 39 40 41 42 43 44 45 46 47 48 49 50
000
ASUS41 KBTV 251711
RWRBTV
VERMONT REGIONAL WEATHER ROUNDUP
NATIONAL WEATHER SERVICE BURLINGTON VT
100 PM EDT WED MAY 25 2016

NOTE: "FAIR" INDICATES FEW OR NO CLOUDS BELOW 12,000 FEET WITH NO
SIGNIFICANT WEATHER AND/OR OBSTRUCTIONS TO VISIBILITY.

* THESE REPORTS ARE NOT UNDER NWS QUALITY CONTROL AND/OR DO NOT
  REPORT WEATHER SUCH AS PRECIPITATION AND FOG.

VTZ001>019-251800-
_____VERMONT_____


CITY           SKY/WX    TMP DP  RH WIND       PRES   REMARKS
BURLINGTON     PTSUNNY   81  51  35 S8        29.93F
MONTPELIER     FAIR      78  47  33 W10G18    30.00F
MORRISVILLE    FAIR      80  44  27 NW13G18   29.96S
ST. JOHNSBURY*   N/A     78  58  49 MISG      29.93F
LYNDONVILLE*   FAIR      70  58  66 CALM      29.98F
MIDDLEBURY*    FAIR      79  50  36 S6        29.96F
RUTLAND*       FAIR      79  48  33 W3        29.99F
SPRINGFIELD    FAIR      83  44  25 NW9G18    29.97F
HIGHGATE*      PTSUNNY   73  51  45 SW5       29.94S
NEWPORT*       FAIR      75  52  45 SW12G17   29.95F
BENNINGTON     FAIR      78  50  37 W6        30.02F

_____LAKE CHAMPLAIN_____


CITY           SKY/WX    TMP DP  RH WIND       PRES   REMARKS
COLCHESTER RF*   N/A     63  54  72 S16         N/A
DIAMOND ISL*     N/A     70  54  56 SW15        N/A

$$

NYZ007-026>031-035-052-083-087-251800-
_____NORTHERN NEW YORK_____


CITY           SKY/WX    TMP DP  RH WIND       PRES   REMARKS
PLATTSBURGH    FAIR      72  54  53 VRB5      29.93S
SARANAC LAKE   FAIR      81  42  25 W10G23    29.97F
MASSENA        FAIR      77  50  38 SW8       29.96F
OGDENSBURG*    SUNNY     77  52  41 SW7       29.97S
POTSDAM*       MOSUNNY   79  55  44 W10       29.96S
WATERTOWN      CLOUDY    67  49  52 SW12      30.02S
FT DRUM        FAIR      73  49  42 SW15      30.00S
ALBANY         FAIR      83  54  36 SE9       30.00F
GLENS FALLS    FAIR      81  55  40 S9        29.98F

$$
NHZ002-005-011-251800-
_____NEW HAMPSHIRE_____


CITY           SKY/WX    TMP DP  RH WIND       PRES   REMARKS
LEBANON        FAIR      81  56  42 CALM      29.95F
KEENE          FAIR      81  55  41 SW7       29.98F
MT WASHINGTON  PTSUNNY   54  39  58 W38         N/A
PLYMOUTH       FAIR      79  52  39 NW3       29.94F
WHITEFIELD     FAIR      79  53  40 VRB6      29.95F

$$

_____REGIONAL QUEBEC LOCATIONS_____


CITY           SKY/WX    TMP DP  RH WIND       PRES   REMARKS
MONTREAL       LGT RAIN  72  55  56 SW9       29.92S
QUEBEC CITY    PTSUNNY   72  55  56 W18G25    29.86S
SHERBROOKE     MOSUNNY   75  50  41 W12       29.91F

_____REGIONAL ONTARIO LOCATIONS_____


CITY           SKY/WX    TMP DP  RH WIND       PRES   REMARKS
OTTAWA         MOSUNNY   77  54  44 NW10      29.97R

______KEY______
VSB  - VISIBILITY IN MILES
WCI  - WIND CHILL INDEX
HX   - HEAT INDEX
$$
NNNN



USA.gov is the U.S. government's official web portal to all federal, state and local government web resources and services.